Regional Weather Roundup
Issued by NWS

Home | Current Version | Previous Version | Graphics & Text | Print | Product List | Glossary On
Versions: 1 2 3 4 5 6 7 8 9 10 11 12 13 14 15 16 17 18 19 20 21 22 23 24 25 26 27 28 29 30 31 32 33 34 35 36 37 38 39 40 41 42 43 44 45 46 47 48 49 50
000
ASUS43 KFSD 301410
RWRSD

WEATHER ROUNDUP FOR SOUTH DAKOTA
NATIONAL WEATHER SERVICE SIOUX FALLS SD
900 AM CDT WED JUL 30 2014

NOTE: "FAIR" INDICATES FEW OR NO CLOUDS BELOW 12,000 FEET WITH NO
SIGNIFICANT WEATHER AND/OR OBSTRUCTIONS TO VISIBILITY.


SDZ001>005-009-010-012>017-301500-
NORTHWEST AND NORTH CENTRAL SOUTH DAKOTA

CITY           SKY/WX    TMP DP  RH WIND       PRES   REMARKS
BUFFALO          N/A     65  55  70 CALM      30.14S
FAITH            N/A     65  55  70 S7        30.16S
MOBRIDGE       PTSUNNY   68  60  75 S5        30.13F
$$

SDZ012>016-024>037-041>051-057-063-072>074-301500-
SOUTHWEST AND SOUTH CENTRAL SOUTH DAKOTA

CITY           SKY/WX    TMP DP  RH WIND       PRES   REMARKS
RAPID CTY ARPT SUNNY     69  57  65 NW5       30.21R
PIERRE         PTSUNNY   65  58  78 SE5       30.15S
CUSTER         MOSUNNY   64  47  53 NW5       30.33R
ELLSWORTH AFB  SUNNY     68  56  67 NW2       30.20S
PHILIP         SUNNY     64  52  64 CALM      30.18S
PINE RIDGE     MOSUNNY   63  57  81 SW5       30.24S
WINNER         FAIR      68  52  56 CALM      30.18S
$$

SDZ004>011-016>023-039-040-301500-
NORTHEAST SOUTH DAKOTA

CITY           SKY/WX    TMP DP  RH WIND       PRES   REMARKS
ABERDEEN       SUNNY     65  54  67 N5        30.17R
WATERTOWN      SUNNY     64  56  75 NW6       30.17S
SISSETON         N/A     65  60  84 CALM      30.14S
$$

SDZ017-020-022-023-036>040-048>070-301500-
SOUTHEAST SOUTH DAKOTA

CITY           SKY/WX    TMP DP  RH WIND       PRES   REMARKS
SIOUX FALLS    MOSUNNY   65  57  75 NE3       30.17S
HURON          SUNNY     65  57  75 CALM      30.16S
CHAMBERLAIN    SUNNY     66  55  66 E6        30.17S
MITCHELL       SUNNY     66  58  75 CALM      30.17S
YANKTON        SUNNY     64  57  77 NW5       30.17R
$$

ABBREVIATIONS USED IN REMARKS
   TC - TEMPERATURE IN CELSIUS
  WCI - WIND CHILL INDEX
   HX - HEAT INDEX
  VSB - VISIBILITY



USA.gov is the U.S. government's official web portal to all federal, state and local government web resources and services.